DW6650 Weather Reports


Display with metric or nautical units.
time (UTC)temp
F
wind
direction
speed
MPH
gust
MPH
rain 1hr
in
rain 24hr
in
rain mn
in
humidity
%
barometer
mb
20260507201016 76 225 2.0 9.0 0.00 0.57 0.49 84 1011.8
20260507200516 75 225 1.0 5.0 0.00 0.57 0.49 83 1011.8
20260507200016 75 225 3.0 9.0 0.00 0.57 0.49 82 1011.8
20260507195516 75 248 4.0 12.0 0.00 0.57 0.49 82 1011.7
20260507195020 75 248 2.0 7.0 0.00 0.57 0.49 84 1011.8
20260507194536 75 248 2.0 8.0 0.00 0.57 0.49 84 1011.9
20260507194016 75 225 2.0 6.0 0.00 0.57 0.49 84 1011.8
20260507193516 75 248 2.0 10.0 0.00 0.57 0.49 84 1011.9
20260507193016 75 248 1.0 3.0 0.01 0.57 0.49 86 1011.8
20260507192516 75 248 1.0 4.0 0.01 0.57 0.49 85 1011.8
20260507192016 75 248 3.0 15.0 0.01 0.57 0.49 84 1011.9
20260507191518 75 248 2.0 8.0 0.01 0.57 0.49 84 1012.0
20260507191017 75 248 1.0 4.0 0.01 0.57 0.49 86 1012.1
20260507190518 75 248 1.0 6.0 0.01 0.57 0.49 85 1012.0
20260507190038 75 225 2.0 6.0 0.01 0.57 0.49 85 1012.0
20260507185538 75 225 2.0 9.0 0.01 0.57 0.49 84 1012.0
20260507185037 75 225 2.0 7.0 0.01 0.57 0.49 84 1012.0
20260507184517 75 225 2.0 9.0 0.01 0.57 0.49 85 1012.0
20260507184017 75 248 2.0 5.0 0.01 0.57 0.49 85 1012.0
20260507183518 75 225 2.0 9.0 0.01 0.57 0.49 85 1012.0
20260507183017 75 248 2.0 7.0 0.00 0.56 0.48 85 1012.0
20260507182538 75 225 3.0 8.0 0.00 0.56 0.48 85 1011.9
20260507182017 75 225 2.0 6.0 0.00 0.56 0.48 86 1011.9
20260507181517 75 248 2.0 8.0 0.00 0.56 0.48 86 1011.9
20260507181017 75 248 3.0 10.0 0.00 0.56 0.48 86 1011.9
20260507180516 75 248 3.0 8.0 0.00 0.56 0.48 87 1011.9
20260507180017 74 225 2.0 7.0 0.00 0.56 0.48 88 1011.9
20260507175517 74 225 1.0 6.0 0.00 0.56 0.48 89 1011.9
20260507175017 74 248 1.0 6.0 0.00 0.56 0.48 90 1011.8
20260507174518 74 248 2.0 7.0 0.00 0.56 0.48 88 1012.0
20260507174038 74 248 1.0 6.0 0.00 0.56 0.48 90 1011.9
20260507173517 74 248 2.0 6.0 0.00 0.56 0.48 90 1011.9
20260507173017 74 225 3.0 9.0 0.00 0.56 0.48 92 1011.9
20260507172558 73 225 2.0 6.0 0.00 0.56 0.48 94 1012.0
20260507172017 73 248 2.0 8.0 0.00 0.56 0.48 94 1011.9
20260507171517 72 90 0.0 3.0 0.00 0.56 0.48 96 1012.0
20260507171017 72 225 3.0 8.0 0.00 0.56 0.48 95 1012.2
20260507170517 72 225 2.0 7.0 0.00 0.56 0.48 96 1012.0
20260507170017 71 248 2.0 10.0 0.00 0.56 0.48 96 1012.2
20260507165517 71 225 3.0 9.0 0.00 0.56 0.48 96 1012.1
20260507165017 71 225 1.0 6.0 0.00 0.56 0.48 97 1012.3
20260507164517 71 248 1.0 5.0 0.00 0.56 0.48 97 1012.4
20260507164017 71 248 2.0 5.0 0.00 0.56 0.48 97 1012.5
20260507163517 71 180 0.0 3.0 0.00 0.56 0.48 98 1012.3
20260507163037 71 45 1.0 3.0 0.00 0.56 0.48 97 1012.3
20260507162517 71 180 1.0 6.0 0.00 0.56 0.48 97 1012.2
20260507162017 71 225 2.0 6.0 0.00 0.56 0.48 97 1012.3
20260507161517 71 248 2.0 8.0 0.00 0.56 0.48 97 1012.0
20260507161017 71 248 2.0 6.0 0.00 0.56 0.48 97 1012.2
20260507160517 71 248 2.0 7.0 0.00 0.56 0.48 97 1012.0
20260507160017 71 248 3.0 7.0 0.00 0.56 0.48 97 1012.0
20260507155537 71 248 3.0 6.0 0.00 0.56 0.48 97 1011.9
20260507155037 71 248 3.0 5.0 0.00 0.56 0.48 97 1011.8
20260507154517 71 270 1.0 3.0 0.00 0.56 0.48 97 1011.7
20260507154037 71 248 2.0 7.0 0.00 0.56 0.48 97 1011.7
20260507153517 71 248 2.0 7.0 0.00 0.56 0.48 97 1011.8
20260507153017 71 248 3.0 6.0 0.00 0.56 0.48 97 1011.8
20260507152517 71 248 2.0 8.0 0.00 0.56 0.48 97 1011.6
20260507152017 71 248 2.0 8.0 0.00 0.56 0.48 97 1011.5
20260507151517 71 225 1.0 2.0 0.00 0.56 0.48 97 1011.6
20260507151057 71 225 1.0 3.0 0.00 0.56 0.48 97 1011.5
20260507150517 71 225 1.0 2.0 0.00 0.56 0.48 97 1011.5
20260507150037 71 225 1.0 2.0 0.00 0.56 0.48 97 1011.5
20260507145517 71 203 2.0 5.0 0.00 0.56 0.48 97 1011.6
20260507145037 71 203 1.0 3.0 0.00 0.56 0.48 97 1011.6
20260507144517 71 225 1.0 2.0 0.00 0.56 0.48 97 1011.7
20260507144037 71 203 1.0 8.0 0.00 0.56 0.48 97 1011.7
20260507143517 71 203 1.0 8.0 0.00 0.56 0.48 98 1011.7
20260507143037 71 203 1.0 3.0 0.00 0.56 0.48 98 1011.7
20260507142517 70 225 1.0 3.0 0.00 0.56 0.48 98 1011.4
20260507142017 70 180 1.0 5.0 0.00 0.56 0.48 98 1011.2
20260507141517 70 180 1.0 3.0 0.00 0.56 0.48 97 1011.4
20260507141017 70 203 1.0 3.0 0.00 0.56 0.48 97 1011.3
20260507140517 69 225 1.0 2.0 0.00 0.56 0.48 97 1011.3
20260507140037 69 225 1.0 5.0 0.00 0.56 0.48 97 1011.3
20260507135517 69 225 1.0 3.0 0.00 0.56 0.48 97 1011.2
20260507135016 69 203 0.0 1.0 0.00 0.56 0.48 97 1011.2
20260507134536 69 158 1.0 2.0 0.00 0.56 0.48 97 1011.2
20260507134037 69 225 0.0 3.0 0.00 0.56 0.48 97 1011.3
20260507133517 69 225 0.0 3.0 0.00 0.56 0.48 97 1011.3
20260507133016 69 248 0.0 1.0 0.00 0.56 0.48 97 1011.3
20260507132519 69 248 0.0 1.0 0.00 0.56 0.48 97 1011.3
20260507132017 68 203 0.0 2.0 0.00 0.56 0.48 97 1011.2
20260507131517 68 203 0.0 1.0 0.00 0.56 0.48 97 1011.1
20260507131037 68 203 0.0 1.0 0.01 0.56 0.48 97 1011.1
20260507130516 68 203 0.0 1.0 0.02 0.56 0.48 97 1011.2
20260507130016 68 203 0.0 2.0 0.02 0.56 0.48 97 1011.4
20260507125537 68 126 0.0 0.0 0.02 0.56 0.48 97 1011.6
20260507125017 68 126 0.0 0.0 0.02 0.56 0.48 97 1011.7
20260507124537 68 203 0.0 2.0 0.02 0.56 0.48 97 1011.7
20260507124036 68 131 0.0 0.0 0.04 0.56 0.48 97 1011.5
20260507123537 68 158 0.0 1.0 0.04 0.56 0.48 97 1011.3
20260507123016 68 225 0.0 2.0 0.04 0.56 0.48 97 1011.2
20260507122517 68 68 0.0 3.0 0.04 0.56 0.48 97 1011.2
20260507122036 68 203 0.0 1.0 0.04 0.56 0.48 97 1011.3
20260507121537 68 203 0.0 1.0 0.04 0.56 0.48 97 1011.4
20260507121016 68 203 0.0 1.0 0.04 0.55 0.47 97 1011.5
20260507120516 68 180 0.0 2.0 0.04 0.54 0.46 97 1011.5
20260507120016 68 203 0.0 5.0 0.04 0.54 0.46 97 1011.5
20260507115516 68 180 0.0 2.0 0.04 0.54 0.46 97 1011.4
20260507115016 68 180 0.0 1.0 0.04 0.54 0.46 97 1011.5
20260507114537 68 248 0.0 1.0 0.04 0.54 0.46 97 1011.6
20260507114016 68 248 0.0 1.0 0.02 0.52 0.44 97 1011.5
20260507113516 68 0 0.0 2.0 0.02 0.52 0.44 97 1011.5
20260507113016 68 248 0.0 2.0 0.02 0.52 0.44 97 1011.5
20260507112516 68 225 0.0 2.0 0.02 0.52 0.44 97 1011.3
20260507112016 68 225 0.0 1.0 0.02 0.52 0.44 97 1011.2
20260507111516 68 225 0.0 1.0 0.02 0.52 0.44 97 1011.4
20260507111041 68 203 0.0 2.0 0.01 0.51 0.43 97 1011.7
20260507110516 68 180 0.0 2.0 0.00 0.50 0.42 97 1011.5
20260507110016 68 135 0.0 1.0 0.00 0.50 0.42 97 1011.6
20260507105516 68 113 0.0 1.0 0.00 0.50 0.42 97 1011.8
20260507105016 67 248 0.0 2.0 0.00 0.50 0.42 97 1011.6
20260507104516 68 68 1.0 4.0 0.00 0.50 0.42 97 1010.9
20260507104016 67 225 0.0 2.0 0.00 0.50 0.42 97 1010.6
20260507103516 67 113 0.0 3.0 0.00 0.50 0.42 97 1010.6
20260507103016 67 90 0.0 2.0 0.00 0.50 0.42 97 1011.1
20260507102516 67 87 0.0 0.0 0.00 0.50 0.42 97 1011.6
20260507102016 67 90 0.0 1.0 0.01 0.50 0.42 97 1011.6
20260507101517 67 90 0.0 3.0 0.01 0.50 0.42 97 1011.6
20260507101016 67 68 0.0 1.0 0.01 0.50 0.42 97 1011.6
20260507100516 67 68 0.0 1.0 0.01 0.50 0.42 97 1011.9
20260507100016 67 338 0.0 1.0 0.01 0.50 0.42 97 1012.0
20260507095516 67 90 0.0 2.0 0.01 0.50 0.42 97 1012.1
20260507095016 67 225 0.0 2.0 0.01 0.50 0.42 97 1012.0
20260507094516 67 180 0.0 2.0 0.01 0.50 0.42 97 1011.9
20260507094016 67 90 0.0 1.0 0.01 0.50 0.42 97 1011.8
20260507093516 67 90 0.0 2.0 0.01 0.50 0.42 97 1011.9
20260507093016 67 90 0.0 2.0 0.01 0.50 0.42 97 1012.1
20260507092516 67 90 0.0 3.0 0.01 0.50 0.42 97 1012.2
20260507092016 67 158 0.0 1.0 0.00 0.49 0.41 97 1012.5
20260507091516 67 45 0.0 2.0 0.00 0.49 0.41 97 1012.4
20260507091016 67 90 0.0 1.0 0.00 0.49 0.41 97 1012.7
20260507090516 67 135 0.0 1.0 0.00 0.49 0.41 97 1013.2
20260507090016 67 98 0.0 0.0 0.00 0.49 0.41 96 1013.2
20260507085516 67 98 0.0 0.0 0.00 0.49 0.41 96 1013.1
20260507085016 67 98 0.0 0.0 0.00 0.49 0.41 96 1013.2
20260507084516 67 90 0.0 1.0 0.00 0.49 0.41 96 1012.9
20260507084016 67 177 0.0 0.0 0.01 0.49 0.41 96 1012.8
20260507083516 67 177 0.0 0.0 0.01 0.49 0.41 96 1012.8
20260507083016 67 180 0.0 1.0 0.01 0.49 0.41 96 1012.7
20260507082516 67 177 0.0 0.0 0.01 0.49 0.41 96 1012.2
20260507082016 67 158 0.0 3.0 0.01 0.49 0.41 96 1012.5
20260507081516 67 158 0.0 3.0 0.03 0.49 0.41 96 1011.9
20260507081016 67 68 0.0 2.0 0.05 0.49 0.41 96 1011.6
20260507080515 67 68 0.0 3.0 0.06 0.49 0.41 96 1011.7
20260507080016 67 90 0.0 2.0 0.08 0.49 0.41 96 1012.0
20260507075516 67 68 0.0 3.0 0.10 0.49 0.41 96 1011.9
20260507075015 67 113 0.0 5.0 0.10 0.49 0.41 96 1012.5
20260507074516 67 225 1.0 3.0 0.11 0.49 0.41 96 1012.8
20260507074016 67 180 1.0 5.0 0.11 0.48 0.40 96 1011.8
20260507073515 67 180 1.0 4.0 0.12 0.48 0.40 96 1011.6
20260507073015 67 203 0.0 3.0 0.12 0.48 0.40 96 1011.7
20260507072519 67 90 1.0 5.0 0.13 0.48 0.40 96 1012.1
20260507072058 67 203 1.0 3.0 0.14 0.48 0.40 96 1014.6
20260507071519 67 203 1.0 2.0 0.14 0.46 0.38 96 1013.7
20260507071017 67 203 0.0 2.0 0.13 0.44 0.36 96 1013.3
20260507070517 68 203 0.0 2.0 0.14 0.43 0.35 95 1013.5
20260507070040 68 139 0.0 0.0 0.14 0.41 0.33 96 1013.4
20260507065538 68 135 0.0 1.0 0.13 0.39 0.31 96 1013.4
20260507065017 68 68 0.0 1.0 0.15 0.39 0.31 96 1013.2
20260507064517 68 68 0.0 1.0 0.14 0.38 0.30 96 1013.4
20260507064017 68 72 0.0 0.0 0.14 0.37 0.29 95 1013.4
20260507063517 68 90 1.0 5.0 0.14 0.36 0.28 95 1012.8
20260507063018 68 23 0.0 2.0 0.15 0.36 0.28 95 1013.1
20260507062538 68 203 0.0 1.0 0.15 0.35 0.27 95 1013.6
20260507062017 68 272 0.0 0.0 0.14 0.34 0.26 96 1013.9
20260507061517 68 270 0.0 1.0 0.13 0.32 0.24 96 1014.2
20260507061017 68 270 1.0 4.0 0.13 0.31 0.23 96 1014.4
20260507060517 68 248 0.0 2.0 0.12 0.29 0.21 96 1014.4
20260507060017 68 248 0.0 1.0 0.11 0.27 0.19 95 1013.6
20260507055520 68 90 0.0 1.0 0.11 0.26 0.18 95 1013.8
20260507055017 68 90 0.0 2.0 0.10 0.24 0.16 95 1013.6
20260507054519 69 0 0.0 1.0 0.11 0.24 0.16 95 1013.8
20260507054037 68 203 0.0 2.0 0.11 0.23 0.15 95 1013.9
20260507053517 69 225 1.0 3.0 0.10 0.22 0.14 95 1014.2
20260507053017 69 225 1.0 2.0 0.10 0.21 0.13 95 1014.0
20260507052542 69 248 1.0 3.0 0.10 0.20 0.12 95 1013.5
20260507052017 69 180 0.0 4.0 0.10 0.20 0.12 95 1013.7
20260507051620 69 203 1.0 4.0 0.09 0.19 0.11 95 1013.9
20260507051017 69 203 1.0 7.0 0.09 0.18 0.10 95 1014.3
20260507050537 69 203 2.0 7.0 0.08 0.17 0.09 95 1014.2
20260507050017 69 180 1.0 2.0 0.08 0.16 0.08 95 1013.9
20260507045517 69 203 0.0 2.0 0.07 0.15 0.07 95 1013.7
20260507045017 69 203 0.0 1.0 0.06 0.14 0.06 95 1013.9
20260507044517 69 225 0.0 3.0 0.07 0.13 0.05 95 1014.2
20260507044058 69 225 0.0 2.0 0.06 0.12 0.04 95 1014.2
20260507043537 69 248 0.0 2.0 0.07 0.12 0.04 94 1014.0
20260507043017 69 248 0.0 1.0 0.07 0.11 0.03 94 1014.1
20260507042517 69 203 0.0 1.0 0.07 0.10 0.02 94 1013.9
20260507042037 69 203 1.0 2.0 0.08 0.10 0.02 94 1013.9
20260507041517 69 203 1.0 3.0 0.08 0.10 0.02 94 1013.8
20260507041017 69 248 0.0 2.0 0.07 0.09 0.01 94 1013.8
20260507040517 69 203 0.0 2.0 0.08 0.09 0.01 94 1013.9
20260507040016 69 180 0.0 2.0 0.07 0.08 0.08 94 1013.7
20260507035538 70 113 0.0 2.0 0.07 0.08 0.08 93 1014.0
20260507035017 70 203 0.0 2.0 0.08 0.08 0.08 93 1014.4
20260507034517 70 203 0.0 2.0 0.06 0.06 0.06 93 1014.0
20260507034017 70 203 0.0 1.0 0.06 0.06 0.06 92 1014.5
20260507033517 70 270 0.0 3.0 0.05 0.05 0.05 92 1014.6
20260507033017 70 270 1.0 4.0 0.04 0.04 0.04 92 1014.9
20260507032518 70 225 1.0 2.0 0.03 0.03 0.03 91 1015.0
20260507032017 70 225 1.0 4.0 0.02 0.02 0.02 91 1015.0
20260507031537 71 270 2.0 7.0 0.02 0.02 0.02 90 1014.6
20260507031017 71 248 1.0 4.0 0.02 0.02 0.02 89 1014.5
20260507030517 71 293 0.0 2.0 0.01 0.01 0.01 89 1014.0
20260507030038 71 90 0.0 2.0 0.01 0.01 0.01 88 1014.0
20260507025517 72 203 1.0 2.0 0.01 0.01 0.01 87 1014.3
20260507025037 72 225 1.0 3.0 0.00 0.00 0.00 86 1014.3
20260507024517 72 225 1.0 2.0 0.00 0.00 0.00 85 1014.2
20260507024017 73 248 1.0 3.0 0.00 0.00 0.00 84 1014.2
20260507023517 74 5 0.0 0.0 0.00 0.00 0.00 83 1014.2
20260507023017 74 5 0.0 0.0 0.00 0.00 0.00 83 1013.8
20260507022517 75 0 0.0 1.0 0.00 0.00 0.00 81 1013.9
20260507022017 75 0 0.0 2.0 0.00 0.00 0.00 79 1013.3
20260507021538 76 23 0.0 1.0 0.00 0.00 0.00 76 1013.2
20260507021017 76 68 0.0 1.0 0.00 0.00 0.00 77 1013.1
20260507020537 77 268 0.0 0.0 0.00 0.00 0.00 74 1013.5
20260507020017 77 270 0.0 1.0 0.00 0.00 0.00 72 1013.5
20260507015520 77 270 0.0 1.0 0.00 0.00 0.00 71 1013.7
20260507015017 78 225 1.0 2.0 0.00 0.00 0.00 69 1013.8
20260507014519 78 225 1.0 3.0 0.00 0.00 0.00 69 1013.6
20260507014037 78 270 0.0 1.0 0.00 0.00 0.00 68 1013.0
20260507013517 78 270 0.0 3.0 0.00 0.00 0.00 68 1013.0
20260507013017 78 45 0.0 1.0 0.00 0.00 0.00 68 1013.1
20260507012517 78 51 0.0 0.0 0.00 0.00 0.00 68 1013.0
20260507012017 78 51 0.0 0.0 0.00 0.00 0.00 68 1013.4
20260507011517 78 45 0.0 1.0 0.00 0.00 0.00 67 1013.5
20260507011017 79 45 0.0 2.0 0.00 0.00 0.00 68 1013.6
20260507010517 79 321 0.0 0.0 0.00 0.00 0.00 66 1013.6
20260507010037 79 321 0.0 0.0 0.00 0.00 0.00 66 1013.5
20260507005517 79 321 0.0 0.0 0.00 0.00 0.00 66 1013.3
20260507005017 80 321 0.0 0.0 0.00 0.00 0.00 65 1013.4
20260507004537 80 321 0.0 0.0 0.00 0.00 0.00 65 1013.7
20260507004037 80 321 0.0 0.0 0.00 0.00 0.00 65 1013.7
20260507003517 80 321 0.0 0.0 0.00 0.00 0.00 65 1013.6
20260507003017 80 321 0.0 0.0 0.00 0.00 0.00 65 1013.7
20260507002542 80 315 0.0 1.0 0.00 0.00 0.00 64 1013.7
20260507002017 80 315 0.0 1.0 0.00 0.00 0.00 64 1013.6
20260507001517 81 321 0.0 0.0 0.00 0.00 0.00 64 1013.4
20260507001017 81 338 0.0 1.0 0.00 0.00 0.00 64 1013.3
20260507000540 81 270 0.0 2.0 0.00 0.00 0.00 63 1013.3
20260507000017 81 293 0.0 1.0 0.00 0.00 0.00 64 1012.4
20260506235537 81 225 0.0 2.0 0.00 0.00 0.00 63 1013.2
20260506235017 81 248 1.0 2.0 0.00 0.00 0.00 63 1013.5
20260506234517 81 225 1.0 2.0 0.00 0.00 0.00 63 1013.4
20260506234017 81 270 0.0 2.0 0.00 0.00 0.00 62 1013.2
20260506233517 82 225 1.0 3.0 0.00 0.00 0.00 62 1012.6
20260506233017 82 203 1.0 2.0 0.00 0.00 0.00 62 1012.9
20260506232517 82 225 0.0 2.0 0.00 0.00 0.00 62 1012.3
20260506232037 82 225 0.0 2.0 0.00 0.00 0.00 62 1012.9
20260506231517 82 225 0.0 1.0 0.00 0.00 0.00 62 1012.9
20260506231017 82 270 0.0 2.0 0.00 0.00 0.00 61 1013.4
20260506230537 82 270 0.0 4.0 0.00 0.00 0.00 61 1013.4
20260506230019 82 225 1.0 3.0 0.00 0.00 0.00 61 1013.7
20260506225536 83 248 1.0 3.0 0.00 0.00 0.00 61 1013.6
20260506225017 83 248 0.0 1.0 0.00 0.00 0.00 60 1013.3
20260506224517 83 248 0.0 1.0 0.00 0.00 0.00 61 1013.2
20260506224016 83 225 0.0 2.0 0.00 0.00 0.00 61 1013.4
20260506223537 83 225 0.0 1.0 0.00 0.00 0.00 60 1013.4
20260506223016 83 225 0.0 2.0 0.00 0.00 0.00 60 1013.3
20260506222517 83 225 0.0 4.0 0.00 0.00 0.00 59 1013.2
20260506222017 84 225 1.0 4.0 0.00 0.00 0.00 59 1013.1
20260506221516 84 225 0.0 2.0 0.00 0.00 0.00 60 1013.4
20260506221017 84 225 0.0 2.0 0.00 0.00 0.00 59 1013.2
20260506220536 84 203 1.0 8.0 0.00 0.00 0.00 59 1013.1
20260506220057 84 225 1.0 4.0 0.00 0.00 0.00 58 1013.3
20260506215516 84 225 1.0 3.0 0.00 0.00 0.00 58 1013.3
20260506215017 85 203 1.0 3.0 0.00 0.00 0.00 57 1013.2
20260506214516 85 180 0.0 1.0 0.00 0.00 0.00 57 1013.1
20260506214017 85 225 2.0 5.0 0.00 0.00 0.00 56 1013.1
20260506213517 85 225 3.0 8.0 0.00 0.00 0.00 56 1013.2
20260506213016 86 203 2.0 5.0 0.00 0.00 0.00 55 1013.4
20260506212537 86 225 3.0 7.0 0.00 0.00 0.00 55 1013.3
20260506212036 86 203 1.0 3.0 0.00 0.00 0.00 55 1013.3
20260506211516 86 203 1.0 4.0 0.00 0.00 0.00 55 1013.3
20260506211016 86 203 1.0 2.0 0.00 0.00 0.00 55 1013.5
20260506210537 86 203 1.0 4.0 0.00 0.00 0.00 55 1013.6
20260506210037 86 203 2.0 6.0 0.00 0.00 0.00 56 1013.8
20260506205536 86 248 2.0 5.0 0.00 0.00 0.00 56 1013.9
20260506205037 86 248 2.0 7.0 0.00 0.00 0.00 55 1013.8
20260506204516 86 225 2.0 7.0 0.00 0.00 0.00 55 1014.0
20260506204016 86 225 3.0 15.0 0.00 0.00 0.00 54 1013.9
20260506203516 86 225 1.0 5.0 0.00 0.00 0.00 55 1014.1
20260506203036 86 248 1.0 3.0 0.00 0.00 0.00 55 1014.0
20260506202516 86 225 1.0 3.0 0.00 0.00 0.00 54 1014.1
20260506202016 86 203 1.0 5.0 0.00 0.00 0.00 54 1014.3
20260506201516 86 225 3.0 10.0 0.00 0.00 0.00 53 1014.4